Weather History for Omak, WA

Change the Weather History Date:

Friday, August 8, 2014

  Actual Average Record
Temperature  
Mean Temperature 79 °F 74 °F  
Max Temperature 91 °F 90 °F 98 °F (1942)
Min Temperature 66 °F 59 °F 41 °F (1949)
Degree Days  
Heating Degree Days 0 0  
Month to date heating degree days 0 0  
Since 1 June heating degree days 40 84  
Since 1 July heating degree days 2 15  
Cooling Degree Days 14 10  
Month to date cooling degree days 136 80  
Year to date cooling degree days 632 441  
Since 1 June cooling degree days 618 418  
Growing Degree Days 28 (Base 50)    
Moisture  
Dew Point 40 °F    
Average Humidity 30    
Maximum Humidity 45    
Minimum Humidity 14    
Precipitation  
Precipitation 0.00 in 0.01 in 0.80 in (1994)
Month to date precipitation T 0.17  
Year to date precipitation 5.39 8.73  
Sea Level Pressure  
Sea Level Pressure 29.87 in    
Wind  
Wind Speed 8 mph (NNW)    
Max Wind Speed 15 mph    
Max Gust Speed 22 mph    
Visibility 10 miles    
Events      
T = Trace of Precipitation, MM = Missing Value Source: NWS Daily Summary

Daily Weather History Graph

Daily Weather History Graph

Search for Another Location

Airport:

Trip Planner

Search our weather history database for the weather conditions in past years. The results will help you decide how hot, cold, wet, or windy it might be!

Date:

Astronomy

Aug. 08, 2014 Rise Set
Actual Time 5:42 AM PDT 8:24 PM PDT
Civil Twilight 5:06 AM PDT 8:59 PM PDT
Nautical Twilight 4:21 AM PDT 9:44 PM PDT
Astronomical Twilight 3:27 AM PDT 10:38 PM PDT
Moon 6:41 PM PDT (8/8) 3:17 AM PDT (8/8)
Length of Visible Light 15h 53m
Length of Day
14h 41m
Waxing Gibbous, 94% of the Moon is Illuminated
Aug 8
Waxing Gibbous
Aug 10
Full
Aug 17
Last Quarter
Aug 25
New
Sep 2
First Quarter

Hourly Weather History & Observations

Time (PDT) Temp. Dew Point Humidity Pressure Visibility Wind Dir Wind Speed Gust Speed Precip Events Conditions
12:53 AM 73.0 °F 41.0 °F 31% 29.83 in 10.0 mi NNW 10.4 mph - N/A   Clear
1:53 AM 73.0 °F 42.1 °F 33% 29.83 in 10.0 mi NNW 8.1 mph - N/A   Clear
2:53 AM 72.0 °F 42.1 °F 34% 29.84 in 10.0 mi NNW 8.1 mph - N/A   Partly Cloudy
3:53 AM 72.0 °F 42.1 °F 34% 29.85 in 10.0 mi North 9.2 mph - N/A   Clear
4:53 AM 70.0 °F 43.0 °F 38% 29.86 in 10.0 mi NNW 6.9 mph - N/A   Clear
5:53 AM 66.9 °F 44.1 °F 44% 29.87 in 10.0 mi WNW 8.1 mph - N/A   Clear
6:53 AM 66.9 °F 45.0 °F 45% 29.88 in 10.0 mi WNW 8.1 mph - N/A   Clear
7:53 AM 72.0 °F 44.1 °F 37% 29.90 in 10.0 mi NNW 6.9 mph - N/A   Clear
8:53 AM 75.0 °F 41.0 °F 29% 29.91 in 10.0 mi North 6.9 mph - N/A   Clear
9:53 AM 77.0 °F 39.9 °F 26% 29.91 in 10.0 mi North 11.5 mph - N/A   Clear
10:53 AM 81.0 °F 39.9 °F 23% 29.91 in 10.0 mi NNE 15.0 mph 19.6 mph N/A   Clear
11:53 AM 84.0 °F 39.0 °F 20% 29.90 in 10.0 mi NNE 9.2 mph - N/A   Clear
12:53 PM 86.0 °F 36.0 °F 17% 29.89 in 10.0 mi NNW 5.8 mph - N/A   Clear
1:53 PM 87.1 °F 36.0 °F 16% 29.88 in 10.0 mi Variable 5.8 mph - N/A   Clear
2:53 PM 87.1 °F 36.0 °F 16% 29.87 in 10.0 mi Calm Calm - N/A   Clear
3:53 PM 89.1 °F 35.1 °F 15% 29.85 in 9.0 mi ENE 4.6 mph - N/A   Clear
4:53 PM 89.1 °F 35.1 °F 15% 29.84 in 9.0 mi Variable 3.5 mph - N/A   Clear
5:53 PM 89.1 °F 34.0 °F 14% 29.84 in 10.0 mi Variable 3.5 mph - N/A   Clear
6:53 PM 86.0 °F 39.9 °F 20% 29.84 in 10.0 mi North 9.2 mph - N/A   Partly Cloudy
7:53 PM 82.9 °F 41.0 °F 23% 29.85 in 10.0 mi North 11.5 mph - N/A   Partly Cloudy
8:53 PM 80.1 °F 41.0 °F 25% 29.88 in 10.0 mi North 12.7 mph 21.9 mph N/A   Partly Cloudy
10:53 PM 73.9 °F 41.0 °F 30% 29.92 in 10.0 mi NNW 9.2 mph - N/A   Clear
11:53 PM 68.0 °F 41.0 °F 37% 29.94 in 10.0 mi NW 8.1 mph - N/A   Clear